DW4221 Weather Reports


Display with metric or nautical units.
time (UTC)temp
F
wind
direction
speed
MPH
gust
MPH
rain 1hr
in
rain 24hr
in
rain mn
in
humidity
%
barometer
mb
20260503211609 64 197 3.0 9.0 0.00 0.02 0.00 33 1003.0
20260503210050 64 339 3.0 11.0 0.00 0.02 0.00 34 1003.1
20260503204552 62 81 6.0 17.0 0.00 0.02 0.00 33 1003.5
20260503203052 63 167 3.0 11.0 0.00 0.02 0.00 33 1003.6
20260503201552 62 238 4.0 11.0 0.00 0.02 0.00 34 1003.8
20260503200106 62 268 3.0 11.0 0.00 0.02 0.00 34 1003.8
20260503194601 62 347 4.0 13.0 0.00 0.02 0.00 33 1004.0
20260503193058 61 257 2.0 11.0 0.00 0.02 0.00 34 1004.2
20260503191555 61 248 4.0 15.0 0.00 0.02 0.00 36 1004.4
20260503190051 60 296 3.0 17.0 0.00 0.02 0.00 31 1004.5
20260503184601 61 252 4.0 15.0 0.00 0.02 0.00 30 1004.9
20260503183050 60 0 6.0 16.0 0.00 0.02 0.00 28 1005.0
20260503181609 61 273 3.0 11.0 0.00 0.02 0.00 31 1005.0
20260503180111 59 88 4.0 13.0 0.00 0.02 0.00 31 1005.2
20260503174558 59 34 5.0 22.0 0.00 0.02 0.00 29 1005.5
20260503173102 58 281 3.0 13.0 0.00 0.02 0.00 32 1005.6
20260503171548 59 351 3.0 15.0 0.00 0.02 0.00 34 1005.7
20260503081553 40 0 0.0 0.0 0.00 0.02 0.00 95 1006.0
20260503071600 44 0 0.0 0.0 0.00 0.02 0.00 94 1006.5
20260503070110 45 0 0.0 0.0 0.00 0.02 0.00 95 1006.8
20260503054553 46 0 0.0 0.0 0.00 0.02 0.00 95 1007.1
20260503053052 46 0 0.0 0.0 0.00 0.02 0.00 94 1007.3
20260503051558 46 0 0.0 0.0 0.00 0.02 0.00 95 1007.3
20260503050052 46 0 0.0 0.0 0.00 0.02 0.00 94 1007.6
20260503044602 46 0 0.0 0.0 0.00 0.02 0.02 94 1007.3
20260503043057 47 0 0.0 1.0 0.00 0.02 0.02 94 1007.6
20260503041550 47 0 0.0 1.0 0.00 0.02 0.02 93 1007.6
20260503040100 47 0 0.0 2.0 0.01 0.02 0.02 93 1007.8
20260503034600 47 0 0.0 0.0 0.01 0.02 0.02 92 1008.1
20260503033054 48 0 0.0 1.0 0.02 0.02 0.02 90 1008.3
20260503031555 48 0 0.0 0.0 0.02 0.02 0.02 88 1008.6
20260503030118 49 0 0.0 1.0 0.01 0.01 0.01 86 1008.9
20260503024550 50 0 0.0 2.0 0.01 0.01 0.01 83 1009.0
20260503023048 51 0 0.0 7.0 0.00 0.00 0.00 79 1009.1
20260503021550 53 243 1.0 7.0 0.00 0.00 0.00 69 1008.9
20260503020052 55 216 2.0 11.0 0.00 0.00 0.00 60 1008.9
20260503014601 56 232 1.0 10.0 0.00 0.00 0.00 54 1008.7
20260503013052 56 259 2.0 10.0 0.00 0.00 0.00 52 1008.6
20260503011558 57 304 1.0 10.0 0.00 0.00 0.00 50 1008.7
20260503010104 57 258 1.0 8.0 0.00 0.00 0.00 49 1008.5
20260503004551 58 5 2.0 10.0 0.00 0.00 0.00 47 1008.3
20260503003059 58 282 1.0 7.0 0.00 0.00 0.00 45 1008.4
20260503001555 58 234 1.0 5.0 0.00 0.00 0.00 43 1008.0
20260503000054 59 246 1.0 5.0 0.00 0.00 0.00 44 1008.3
20260502234554 59 0 1.0 6.0 0.00 0.00 0.00 42 1008.1
20260502233052 59 211 1.0 6.0 0.00 0.00 0.00 42 1008.4
20260502231556 60 265 1.0 11.0 0.00 0.00 0.00 41 1008.6
20260502230053 60 248 2.0 7.0 0.00 0.00 0.00 39 1008.7
20260502224550 61 232 1.0 7.0 0.00 0.00 0.00 39 1008.7
20260502223051 61 0 2.0 11.0 0.00 0.00 0.00 38 1008.6
20260502221551 61 219 1.0 13.0 0.00 0.00 0.00 37 1008.9
20260502220055 62 238 3.0 11.0 0.00 0.00 0.00 35 1008.9
20260502214554 61 241 4.0 13.0 0.00 0.00 0.00 37 1009.4
20260502213051 60 201 2.0 10.0 0.00 0.00 0.00 37 1009.4